User: anonymous   Login
Location: Little Chesterford
(52.0500°N, 0.1833°E)
Time: 03:43:47
(UTC+00:00)
Language:

Cosmos 1805 - Orbit

View from above orbital plane
View from above orbital plane
View from above satellite
View from above satellite

Ground track
Ground track

The orbit data is extracted from the following two-line orbital elements,

1 17191U 86097A   24060.59061935  .00007033  00000-0  30131-3 0  9993
2 17191  82.4707 129.9425 0002254 239.0871 121.0143 15.22607622 33780
Epoch (UTC): 29 February 2024 14:10:29
Eccentricity: 0.0002254
inclination: 82.4707°
perigee height: 496 km
apogee height: 499 km
right ascension of ascending node: 129.9425°
argument of perigee: 239.0871°
revolutions per day: 15.22607622
mean anomaly at epoch: 121.0143°
orbit number at epoch: 3378

The dashed part of the orbit path shows where the satellite is in the earth's shadow,  

DLR